Regional Weather Roundup
Issued by NWS

Home | Current Version | Previous Version | Text Only | Print | Product List | Glossary On
Versions: 1 2 3 4 5 6 7 8 9 10 11 12 13 14 15 16 17 18 19 20 21 22 23 24 25 26 27 28 29 30 31 32 33 34 35 36 37 38 39 40 41 42 43 44 45 46 47 48 49 50
000
ASUS44 KJAN 280810
RWRMS

MISSISSIPPI HOURLY WEATHER ROUNDUP
NATIONAL WEATHER SERVICE JACKSON MS
300 AM CDT SAT MAY 28 2016

NOTE: "FAIR: INDICATES FEW OR NO CLOUDS BELOW 12,000 FEET WITH NO
SIGNIFICANT WEATHER AND/OR OBSTRUCTIONS TO VISIBILITY.

MSZ001>002-007>008-010>013-018>021-025>028-034>036-280900-
NORTHWEST MISSISSIPPI

CITY           SKY/WX    TMP DP  RH WIND       PRES   REMARKS
BATESVILLE     FAIR      71  65  81 CALM      29.91R
CLARKSDALE     PTCLDY    72  72 100 CALM      29.91R
CLEVELAND      PTSUNNY   69  69 100 W5        29.91R
GREENWOOD      MOCLDY    74  64  71 S15       29.88R
GREENVILLE     CLOUDY    70  66  87 W6        29.90R
OLIVE BRANCH   CLEAR     70  70 100 SW6       29.91R
OXFORD         FAIR      72  63  73 S10G16    29.91S
TUNICA         CLOUDY    68  64  88 CALM      29.92R
WINONA         FAIR      71  66  84 SE10      29.88F
$$

MSZ003>006-009-014>017-022>024-029>033-037>039-280900-
NORTHEAST MISSISSIPPI

CITY           SKY/WX    TMP DP  RH WIND       PRES   REMARKS
COLUMBUS AFB   PTCLDY    69  65  86 SE8       29.95F
CORINTH        FAIR      72  64  78 S8        29.93S
GOLDN TRIANGLE PTCLDY    70  63  78 S8        29.95F
STARKVILLE     FAIR      68  64  88 SE5       29.94F
TUPELO         CLEAR     70  63  78 SE6       29.94S
$$

MSZ040-058-280900-
CENTRAL MISSISSIPPI

CITY           SKY/WX    TMP DP  RH WIND       PRES   REMARKS
JACKSON INTL   CLOUDY    72  67  84 SE14      29.89F
JACKSON HAWKNS CLOUDY    71  66  84 SE10      29.91S
MADISON        FAIR      70  64  83 SE7       29.90S
MERIDIAN KEY   CLOUDY    73  66  78 SW6       29.97F
MERIDIAN NAS   CLOUDY    72  65  78 S6        29.97F
VICKSBURG TVR  PTCLDY    67  65  93 CALM      29.89S
VICKSBURG VKS  MOSUNNY   68  64  88 CALM      29.90R
$$

MSZ059>079-280900-
SOUTH MISSISSIPPI

CITY           SKY/WX    TMP DP  RH WIND       PRES   REMARKS
BROOKHAVEN     FAIR     N/A N/A N/A SE12G17   29.90F
COLUMBIA       FAIR      70  68  94 SE5       29.98F
HATTIESBURG    CLOUDY    71  68  90 SE3       29.97F
MCCOMB         MOCLDY    69  65  86 SE7       29.92F
NATCHEZ        CLOUDY    66  61  82 SE6       29.88S
PINE BELT      CLOUDY    70  64  83 SE5       29.97F
$$

MSZ080>082-280900-
COASTAL MISSISSIPPI

CITY           SKY/WX    TMP DP  RH WIND       PRES   REMARKS
BILOXI         CLOUDY    78  70  77 S8        29.97S
PASCAGOULA     CLOUDY    71  69  93 CALM      29.98F
GULFPORT       CLOUDY    78  68  71 S6        29.96S
$$




USA.gov is the U.S. government's official web portal to all federal, state and local government web resources and services.